<?xml version="1.0" encoding="UTF-8" standalone="no" ?>
<gpx xmlns="http://www.topografix.com/GPX/1/1" xmlns:xsi="http://www.w3.org/2001/XMLSchema-instance" xsi:schemaLocation="http://www.topografix.com/GPX/1/1 http://www.topografix.com/GPX/1/1/gpx.xsd" version="1.1" creator="VisuGPX - https://www.visugpx.com">
  <metadata>
    <name>Marche 2022 - 10Km - Bas</name>
  </metadata>
  <trk>
    <name><![CDATA[14222097-Marche 2022 - 10Km - Bas]]></name>
    <trkseg>
      <trkpt lat="45.84822" lon="4.52947">
        <ele>426</ele>
        <time>2022-02-04T20:27:44Z</time>
      </trkpt>
      <trkpt lat="45.84817" lon="4.52972">
        <ele>422</ele>
        <time>2022-02-04T20:27:59Z</time>
      </trkpt>
      <trkpt lat="45.84813" lon="4.52985">
        <ele>421</ele>
        <time>2022-02-04T20:28:06Z</time>
      </trkpt>
      <trkpt lat="45.8481" lon="4.52991">
        <ele>420</ele>
        <time>2022-02-04T20:28:11Z</time>
      </trkpt>
      <trkpt lat="45.84803" lon="4.5299">
        <ele>420</ele>
        <time>2022-02-04T20:28:16Z</time>
      </trkpt>
      <trkpt lat="45.84771" lon="4.52968">
        <ele>422</ele>
        <time>2022-02-04T20:28:45Z</time>
      </trkpt>
      <trkpt lat="45.8477" lon="4.52976">
        <ele>421</ele>
        <time>2022-02-04T20:28:49Z</time>
      </trkpt>
      <trkpt lat="45.84772" lon="4.52984">
        <ele>420</ele>
        <time>2022-02-04T20:28:54Z</time>
      </trkpt>
      <trkpt lat="45.8477" lon="4.52993">
        <ele>419</ele>
        <time>2022-02-04T20:28:59Z</time>
      </trkpt>
      <trkpt lat="45.84774" lon="4.53004">
        <ele>417</ele>
        <time>2022-02-04T20:29:06Z</time>
      </trkpt>
      <trkpt lat="45.84765" lon="4.53022">
        <ele>416</ele>
        <time>2022-02-04T20:29:18Z</time>
      </trkpt>
      <trkpt lat="45.84759" lon="4.53028">
        <ele>415</ele>
        <time>2022-02-04T20:29:24Z</time>
      </trkpt>
      <trkpt lat="45.84761" lon="4.53062">
        <ele>412</ele>
        <time>2022-02-04T20:29:43Z</time>
      </trkpt>
      <trkpt lat="45.84829" lon="4.53053">
        <ele>413</ele>
        <time>2022-02-04T20:30:38Z</time>
      </trkpt>
      <trkpt lat="45.84852" lon="4.53042">
        <ele>413</ele>
        <time>2022-02-04T20:30:57Z</time>
      </trkpt>
      <trkpt lat="45.84861" lon="4.53034">
        <ele>413</ele>
        <time>2022-02-04T20:31:06Z</time>
      </trkpt>
      <trkpt lat="45.84881" lon="4.53069">
        <ele>408</ele>
        <time>2022-02-04T20:31:31Z</time>
      </trkpt>
      <trkpt lat="45.84908" lon="4.53125">
        <ele>401</ele>
        <time>2022-02-04T20:32:09Z</time>
      </trkpt>
      <trkpt lat="45.84923" lon="4.53157">
        <ele>397</ele>
        <time>2022-02-04T20:32:31Z</time>
      </trkpt>
      <trkpt lat="45.84925" lon="4.53178">
        <ele>395</ele>
        <time>2022-02-04T20:32:42Z</time>
      </trkpt>
      <trkpt lat="45.84923" lon="4.53191">
        <ele>394</ele>
        <time>2022-02-04T20:32:50Z</time>
      </trkpt>
      <trkpt lat="45.8494" lon="4.53202">
        <ele>392</ele>
        <time>2022-02-04T20:33:05Z</time>
      </trkpt>
      <trkpt lat="45.84963" lon="4.53203">
        <ele>390</ele>
        <time>2022-02-04T20:33:23Z</time>
      </trkpt>
      <trkpt lat="45.84979" lon="4.532">
        <ele>389</ele>
        <time>2022-02-04T20:33:36Z</time>
      </trkpt>
      <trkpt lat="45.84994" lon="4.53194">
        <ele>388</ele>
        <time>2022-02-04T20:33:49Z</time>
      </trkpt>
      <trkpt lat="45.85038" lon="4.5323">
        <ele>381</ele>
        <time>2022-02-04T20:34:29Z</time>
      </trkpt>
      <trkpt lat="45.8508" lon="4.53274">
        <ele>377</ele>
        <time>2022-02-04T20:35:11Z</time>
      </trkpt>
      <trkpt lat="45.851" lon="4.53294">
        <ele>375</ele>
        <time>2022-02-04T20:35:30Z</time>
      </trkpt>
      <trkpt lat="45.85109" lon="4.53309">
        <ele>375</ele>
        <time>2022-02-04T20:35:41Z</time>
      </trkpt>
      <trkpt lat="45.85152" lon="4.53295">
        <ele>372</ele>
        <time>2022-02-04T20:36:17Z</time>
      </trkpt>
      <trkpt lat="45.85175" lon="4.53285">
        <ele>370</ele>
        <time>2022-02-04T20:36:36Z</time>
      </trkpt>
      <trkpt lat="45.85216" lon="4.53276">
        <ele>365</ele>
        <time>2022-02-04T20:37:09Z</time>
      </trkpt>
      <trkpt lat="45.85264" lon="4.53256">
        <ele>360</ele>
        <time>2022-02-04T20:37:49Z</time>
      </trkpt>
      <trkpt lat="45.85283" lon="4.53287">
        <ele>358</ele>
        <time>2022-02-04T20:38:12Z</time>
      </trkpt>
      <trkpt lat="45.85323" lon="4.53302">
        <ele>354</ele>
        <time>2022-02-04T20:38:45Z</time>
      </trkpt>
      <trkpt lat="45.85365" lon="4.53318">
        <ele>350</ele>
        <time>2022-02-04T20:39:20Z</time>
      </trkpt>
      <trkpt lat="45.85384" lon="4.53326">
        <ele>349</ele>
        <time>2022-02-04T20:39:36Z</time>
      </trkpt>
      <trkpt lat="45.85422" lon="4.53301">
        <ele>349</ele>
        <time>2022-02-04T20:40:09Z</time>
      </trkpt>
      <trkpt lat="45.85434" lon="4.53311">
        <ele>348</ele>
        <time>2022-02-04T20:40:20Z</time>
      </trkpt>
      <trkpt lat="45.85459" lon="4.53329">
        <ele>347</ele>
        <time>2022-02-04T20:40:43Z</time>
      </trkpt>
      <trkpt lat="45.85495" lon="4.53328">
        <ele>347</ele>
        <time>2022-02-04T20:41:12Z</time>
      </trkpt>
      <trkpt lat="45.85532" lon="4.53336">
        <ele>346</ele>
        <time>2022-02-04T20:41:42Z</time>
      </trkpt>
      <trkpt lat="45.85573" lon="4.53358">
        <ele>343</ele>
        <time>2022-02-04T20:42:17Z</time>
      </trkpt>
      <trkpt lat="45.85608" lon="4.53385">
        <ele>340</ele>
        <time>2022-02-04T20:42:48Z</time>
      </trkpt>
      <trkpt lat="45.85645" lon="4.53415">
        <ele>338</ele>
        <time>2022-02-04T20:43:23Z</time>
      </trkpt>
      <trkpt lat="45.85656" lon="4.53432">
        <ele>337</ele>
        <time>2022-02-04T20:43:35Z</time>
      </trkpt>
      <trkpt lat="45.85663" lon="4.53456">
        <ele>335</ele>
        <time>2022-02-04T20:43:50Z</time>
      </trkpt>
      <trkpt lat="45.85675" lon="4.53459">
        <ele>334</ele>
        <time>2022-02-04T20:44:00Z</time>
      </trkpt>
      <trkpt lat="45.85686" lon="4.53488">
        <ele>332</ele>
        <time>2022-02-04T20:44:18Z</time>
      </trkpt>
      <trkpt lat="45.85707" lon="4.53508">
        <ele>331</ele>
        <time>2022-02-04T20:44:38Z</time>
      </trkpt>
      <trkpt lat="45.857" lon="4.53541">
        <ele>332</ele>
        <time>2022-02-04T20:44:58Z</time>
      </trkpt>
      <trkpt lat="45.85698" lon="4.53568">
        <ele>332</ele>
        <time>2022-02-04T20:45:13Z</time>
      </trkpt>
      <trkpt lat="45.857" lon="4.53589">
        <ele>332</ele>
        <time>2022-02-04T20:45:25Z</time>
      </trkpt>
      <trkpt lat="45.85707" lon="4.53615">
        <ele>332</ele>
        <time>2022-02-04T20:45:40Z</time>
      </trkpt>
      <trkpt lat="45.85717" lon="4.53698">
        <ele>332</ele>
        <time>2022-02-04T20:46:27Z</time>
      </trkpt>
      <trkpt lat="45.85725" lon="4.53764">
        <ele>332</ele>
        <time>2022-02-04T20:47:04Z</time>
      </trkpt>
      <trkpt lat="45.85725" lon="4.53839">
        <ele>331</ele>
        <time>2022-02-04T20:47:46Z</time>
      </trkpt>
      <trkpt lat="45.85716" lon="4.53937">
        <ele>331</ele>
        <time>2022-02-04T20:48:41Z</time>
      </trkpt>
      <trkpt lat="45.85705" lon="4.54036">
        <ele>330</ele>
        <time>2022-02-04T20:49:37Z</time>
      </trkpt>
      <trkpt lat="45.85693" lon="4.54108">
        <ele>330</ele>
        <time>2022-02-04T20:50:19Z</time>
      </trkpt>
      <trkpt lat="45.85687" lon="4.54143">
        <ele>330</ele>
        <time>2022-02-04T20:50:39Z</time>
      </trkpt>
      <trkpt lat="45.85681" lon="4.5417">
        <ele>330</ele>
        <time>2022-02-04T20:50:54Z</time>
      </trkpt>
      <trkpt lat="45.85659" lon="4.54242">
        <ele>329</ele>
        <time>2022-02-04T20:51:38Z</time>
      </trkpt>
      <trkpt lat="45.85642" lon="4.54309">
        <ele>328</ele>
        <time>2022-02-04T20:52:18Z</time>
      </trkpt>
      <trkpt lat="45.85626" lon="4.54349">
        <ele>328</ele>
        <time>2022-02-04T20:52:44Z</time>
      </trkpt>
      <trkpt lat="45.85601" lon="4.54399">
        <ele>328</ele>
        <time>2022-02-04T20:53:18Z</time>
      </trkpt>
      <trkpt lat="45.85549" lon="4.54435">
        <ele>328</ele>
        <time>2022-02-04T20:54:04Z</time>
      </trkpt>
      <trkpt lat="45.85533" lon="4.54447">
        <ele>328</ele>
        <time>2022-02-04T20:54:19Z</time>
      </trkpt>
      <trkpt lat="45.85475" lon="4.54514">
        <ele>328</ele>
        <time>2022-02-04T20:55:18Z</time>
      </trkpt>
      <trkpt lat="45.8546" lon="4.54538">
        <ele>329</ele>
        <time>2022-02-04T20:55:36Z</time>
      </trkpt>
      <trkpt lat="45.85428" lon="4.54611">
        <ele>330</ele>
        <time>2022-02-04T20:56:24Z</time>
      </trkpt>
      <trkpt lat="45.85413" lon="4.54641">
        <ele>331</ele>
        <time>2022-02-04T20:56:45Z</time>
      </trkpt>
      <trkpt lat="45.85402" lon="4.5466">
        <ele>331</ele>
        <time>2022-02-04T20:56:59Z</time>
      </trkpt>
      <trkpt lat="45.85358" lon="4.54718">
        <ele>330</ele>
        <time>2022-02-04T20:57:47Z</time>
      </trkpt>
      <trkpt lat="45.85341" lon="4.5475">
        <ele>330</ele>
        <time>2022-02-04T20:58:09Z</time>
      </trkpt>
      <trkpt lat="45.85291" lon="4.54821">
        <ele>330</ele>
        <time>2022-02-04T20:59:05Z</time>
      </trkpt>
      <trkpt lat="45.85252" lon="4.54874">
        <ele>330</ele>
        <time>2022-02-04T20:59:48Z</time>
      </trkpt>
      <trkpt lat="45.85229" lon="4.54905">
        <ele>332</ele>
        <time>2022-02-04T21:00:14Z</time>
      </trkpt>
      <trkpt lat="45.85209" lon="4.54948">
        <ele>334</ele>
        <time>2022-02-04T21:00:42Z</time>
      </trkpt>
      <trkpt lat="45.85173" lon="4.55069">
        <ele>335</ele>
        <time>2022-02-04T21:01:56Z</time>
      </trkpt>
      <trkpt lat="45.85152" lon="4.55112">
        <ele>336</ele>
        <time>2022-02-04T21:02:25Z</time>
      </trkpt>
      <trkpt lat="45.85135" lon="4.55192">
        <ele>335</ele>
        <time>2022-02-04T21:03:12Z</time>
      </trkpt>
      <trkpt lat="45.85081" lon="4.55298">
        <ele>338</ele>
        <time>2022-02-04T21:04:25Z</time>
      </trkpt>
      <trkpt lat="45.84979" lon="4.55327">
        <ele>345</ele>
        <time>2022-02-04T21:05:48Z</time>
      </trkpt>
      <trkpt lat="45.84833" lon="4.55342">
        <ele>343</ele>
        <time>2022-02-04T21:07:45Z</time>
      </trkpt>
      <trkpt lat="45.84793" lon="4.55344">
        <ele>342</ele>
        <time>2022-02-04T21:08:18Z</time>
      </trkpt>
      <trkpt lat="45.84758" lon="4.5536">
        <ele>339</ele>
        <time>2022-02-04T21:08:47Z</time>
      </trkpt>
      <trkpt lat="45.84705" lon="4.55366">
        <ele>341</ele>
        <time>2022-02-04T21:09:29Z</time>
      </trkpt>
      <trkpt lat="45.8462" lon="4.55412">
        <ele>341</ele>
        <time>2022-02-04T21:10:42Z</time>
      </trkpt>
      <trkpt lat="45.84608" lon="4.55412">
        <ele>342</ele>
        <time>2022-02-04T21:10:52Z</time>
      </trkpt>
      <trkpt lat="45.84587" lon="4.55418">
        <ele>343</ele>
        <time>2022-02-04T21:11:09Z</time>
      </trkpt>
      <trkpt lat="45.84548" lon="4.55395">
        <ele>340</ele>
        <time>2022-02-04T21:11:43Z</time>
      </trkpt>
      <trkpt lat="45.84498" lon="4.55333">
        <ele>336</ele>
        <time>2022-02-04T21:12:36Z</time>
      </trkpt>
      <trkpt lat="45.84447" lon="4.55241">
        <ele>333</ele>
        <time>2022-02-04T21:13:41Z</time>
      </trkpt>
      <trkpt lat="45.84406" lon="4.55212">
        <ele>332</ele>
        <time>2022-02-04T21:14:18Z</time>
      </trkpt>
      <trkpt lat="45.84362" lon="4.55348">
        <ele>335</ele>
        <time>2022-02-04T21:15:41Z</time>
      </trkpt>
      <trkpt lat="45.84341" lon="4.55387">
        <ele>337</ele>
        <time>2022-02-04T21:16:09Z</time>
      </trkpt>
      <trkpt lat="45.84281" lon="4.55445">
        <ele>343</ele>
        <time>2022-02-04T21:17:07Z</time>
      </trkpt>
      <trkpt lat="45.84262" lon="4.55481">
        <ele>345</ele>
        <time>2022-02-04T21:17:32Z</time>
      </trkpt>
      <trkpt lat="45.84228" lon="4.55505">
        <ele>348</ele>
        <time>2022-02-04T21:18:02Z</time>
      </trkpt>
      <trkpt lat="45.842" lon="4.55505">
        <ele>350</ele>
        <time>2022-02-04T21:18:25Z</time>
      </trkpt>
      <trkpt lat="45.8411" lon="4.55419">
        <ele>359</ele>
        <time>2022-02-04T21:19:51Z</time>
      </trkpt>
      <trkpt lat="45.84028" lon="4.55345">
        <ele>366</ele>
        <time>2022-02-04T21:21:09Z</time>
      </trkpt>
      <trkpt lat="45.8398" lon="4.55276">
        <ele>369</ele>
        <time>2022-02-04T21:22:03Z</time>
      </trkpt>
      <trkpt lat="45.83966" lon="4.55248">
        <ele>369</ele>
        <time>2022-02-04T21:22:23Z</time>
      </trkpt>
      <trkpt lat="45.83964" lon="4.55162">
        <ele>367</ele>
        <time>2022-02-04T21:23:11Z</time>
      </trkpt>
      <trkpt lat="45.83965" lon="4.55116">
        <ele>364</ele>
        <time>2022-02-04T21:23:36Z</time>
      </trkpt>
      <trkpt lat="45.83969" lon="4.55077">
        <ele>362</ele>
        <time>2022-02-04T21:23:58Z</time>
      </trkpt>
      <trkpt lat="45.83968" lon="4.54984">
        <ele>362</ele>
        <time>2022-02-04T21:24:50Z</time>
      </trkpt>
      <trkpt lat="45.83973" lon="4.54971">
        <ele>363</ele>
        <time>2022-02-04T21:24:58Z</time>
      </trkpt>
      <trkpt lat="45.83934" lon="4.54966">
        <ele>363</ele>
        <time>2022-02-04T21:25:30Z</time>
      </trkpt>
      <trkpt lat="45.83869" lon="4.54985">
        <ele>366</ele>
        <time>2022-02-04T21:26:23Z</time>
      </trkpt>
      <trkpt lat="45.83748" lon="4.54928">
        <ele>380</ele>
        <time>2022-02-04T21:28:05Z</time>
      </trkpt>
      <trkpt lat="45.83727" lon="4.5494">
        <ele>378</ele>
        <time>2022-02-04T21:28:23Z</time>
      </trkpt>
      <trkpt lat="45.83722" lon="4.54939">
        <ele>378</ele>
        <time>2022-02-04T21:28:27Z</time>
      </trkpt>
      <trkpt lat="45.83709" lon="4.54885">
        <ele>380</ele>
        <time>2022-02-04T21:28:59Z</time>
      </trkpt>
      <trkpt lat="45.83704" lon="4.54867">
        <ele>380</ele>
        <time>2022-02-04T21:29:10Z</time>
      </trkpt>
      <trkpt lat="45.83704" lon="4.54825">
        <ele>380</ele>
        <time>2022-02-04T21:29:33Z</time>
      </trkpt>
      <trkpt lat="45.8372" lon="4.54721">
        <ele>380</ele>
        <time>2022-02-04T21:30:32Z</time>
      </trkpt>
      <trkpt lat="45.83731" lon="4.54628">
        <ele>381</ele>
        <time>2022-02-04T21:31:25Z</time>
      </trkpt>
      <trkpt lat="45.83683" lon="4.54584">
        <ele>381</ele>
        <time>2022-02-04T21:32:11Z</time>
      </trkpt>
      <trkpt lat="45.83666" lon="4.54559">
        <ele>383</ele>
        <time>2022-02-04T21:32:30Z</time>
      </trkpt>
      <trkpt lat="45.83656" lon="4.54531">
        <ele>385</ele>
        <time>2022-02-04T21:32:48Z</time>
      </trkpt>
      <trkpt lat="45.83646" lon="4.54462">
        <ele>389</ele>
        <time>2022-02-04T21:33:27Z</time>
      </trkpt>
      <trkpt lat="45.83627" lon="4.54402">
        <ele>392</ele>
        <time>2022-02-04T21:34:04Z</time>
      </trkpt>
      <trkpt lat="45.83608" lon="4.54402">
        <ele>392</ele>
        <time>2022-02-04T21:34:19Z</time>
      </trkpt>
      <trkpt lat="45.83594" lon="4.54417">
        <ele>391</ele>
        <time>2022-02-04T21:34:33Z</time>
      </trkpt>
      <trkpt lat="45.83584" lon="4.54456">
        <ele>391</ele>
        <time>2022-02-04T21:34:56Z</time>
      </trkpt>
      <trkpt lat="45.8358" lon="4.54533">
        <ele>390</ele>
        <time>2022-02-04T21:35:39Z</time>
      </trkpt>
      <trkpt lat="45.83518" lon="4.5466">
        <ele>404</ele>
        <time>2022-02-04T21:37:06Z</time>
      </trkpt>
      <trkpt lat="45.83459" lon="4.54753">
        <ele>415</ele>
        <time>2022-02-04T21:38:16Z</time>
      </trkpt>
      <trkpt lat="45.834" lon="4.54852">
        <ele>421</ele>
        <time>2022-02-04T21:39:29Z</time>
      </trkpt>
      <trkpt lat="45.83364" lon="4.54864">
        <ele>429</ele>
        <time>2022-02-04T21:39:58Z</time>
      </trkpt>
      <trkpt lat="45.83345" lon="4.54884">
        <ele>432</ele>
        <time>2022-02-04T21:40:17Z</time>
      </trkpt>
      <trkpt lat="45.8333" lon="4.54921">
        <ele>431</ele>
        <time>2022-02-04T21:40:41Z</time>
      </trkpt>
      <trkpt lat="45.83344" lon="4.55031">
        <ele>424</ele>
        <time>2022-02-04T21:41:43Z</time>
      </trkpt>
      <trkpt lat="45.83355" lon="4.55069">
        <ele>425</ele>
        <time>2022-02-04T21:42:06Z</time>
      </trkpt>
      <trkpt lat="45.83361" lon="4.55104">
        <ele>425</ele>
        <time>2022-02-04T21:42:26Z</time>
      </trkpt>
      <trkpt lat="45.83354" lon="4.55129">
        <ele>426</ele>
        <time>2022-02-04T21:42:41Z</time>
      </trkpt>
      <trkpt lat="45.83326" lon="4.55148">
        <ele>431</ele>
        <time>2022-02-04T21:43:06Z</time>
      </trkpt>
      <trkpt lat="45.83237" lon="4.55179">
        <ele>440</ele>
        <time>2022-02-04T21:44:20Z</time>
      </trkpt>
      <trkpt lat="45.83158" lon="4.55216">
        <ele>447</ele>
        <time>2022-02-04T21:45:26Z</time>
      </trkpt>
      <trkpt lat="45.83076" lon="4.55288">
        <ele>451</ele>
        <time>2022-02-04T21:46:43Z</time>
      </trkpt>
      <trkpt lat="45.83047" lon="4.55292">
        <ele>453</ele>
        <time>2022-02-04T21:47:06Z</time>
      </trkpt>
      <trkpt lat="45.83149" lon="4.55051">
        <ele>456</ele>
        <time>2022-02-04T21:49:44Z</time>
      </trkpt>
      <trkpt lat="45.83174" lon="4.54974">
        <ele>462</ele>
        <time>2022-02-04T21:50:31Z</time>
      </trkpt>
      <trkpt lat="45.83176" lon="4.5493">
        <ele>466</ele>
        <time>2022-02-04T21:50:56Z</time>
      </trkpt>
      <trkpt lat="45.83208" lon="4.54795">
        <ele>471</ele>
        <time>2022-02-04T21:52:15Z</time>
      </trkpt>
      <trkpt lat="45.83273" lon="4.54695">
        <ele>467</ele>
        <time>2022-02-04T21:53:32Z</time>
      </trkpt>
      <trkpt lat="45.83287" lon="4.54658">
        <ele>464</ele>
        <time>2022-02-04T21:53:55Z</time>
      </trkpt>
      <trkpt lat="45.83294" lon="4.54609">
        <ele>460</ele>
        <time>2022-02-04T21:54:23Z</time>
      </trkpt>
      <trkpt lat="45.83285" lon="4.54577">
        <ele>459</ele>
        <time>2022-02-04T21:54:42Z</time>
      </trkpt>
      <trkpt lat="45.83274" lon="4.54543">
        <ele>459</ele>
        <time>2022-02-04T21:55:03Z</time>
      </trkpt>
      <trkpt lat="45.83264" lon="4.54497">
        <ele>458</ele>
        <time>2022-02-04T21:55:30Z</time>
      </trkpt>
      <trkpt lat="45.83275" lon="4.54445">
        <ele>459</ele>
        <time>2022-02-04T21:56:00Z</time>
      </trkpt>
      <trkpt lat="45.83313" lon="4.54348">
        <ele>459</ele>
        <time>2022-02-04T21:57:02Z</time>
      </trkpt>
      <trkpt lat="45.83335" lon="4.54185">
        <ele>465</ele>
        <time>2022-02-04T21:58:35Z</time>
      </trkpt>
      <trkpt lat="45.83337" lon="4.54086">
        <ele>466</ele>
        <time>2022-02-04T21:59:30Z</time>
      </trkpt>
      <trkpt lat="45.83384" lon="4.54013">
        <ele>464</ele>
        <time>2022-02-04T22:00:26Z</time>
      </trkpt>
      <trkpt lat="45.83424" lon="4.53967">
        <ele>467</ele>
        <time>2022-02-04T22:01:07Z</time>
      </trkpt>
      <trkpt lat="45.83468" lon="4.53857">
        <ele>469</ele>
        <time>2022-02-04T22:02:18Z</time>
      </trkpt>
      <trkpt lat="45.83532" lon="4.5368">
        <ele>470</ele>
        <time>2022-02-04T22:04:09Z</time>
      </trkpt>
      <trkpt lat="45.83572" lon="4.53604">
        <ele>477</ele>
        <time>2022-02-04T22:05:02Z</time>
      </trkpt>
      <trkpt lat="45.8361" lon="4.53642">
        <ele>481</ele>
        <time>2022-02-04T22:05:39Z</time>
      </trkpt>
      <trkpt lat="45.8367" lon="4.53698">
        <ele>486</ele>
        <time>2022-02-04T22:06:36Z</time>
      </trkpt>
      <trkpt lat="45.83707" lon="4.53757">
        <ele>487</ele>
        <time>2022-02-04T22:07:21Z</time>
      </trkpt>
      <trkpt lat="45.83765" lon="4.53797">
        <ele>491</ele>
        <time>2022-02-04T22:08:12Z</time>
      </trkpt>
      <trkpt lat="45.83819" lon="4.53827">
        <ele>494</ele>
        <time>2022-02-04T22:08:58Z</time>
      </trkpt>
      <trkpt lat="45.83875" lon="4.53832">
        <ele>495</ele>
        <time>2022-02-04T22:09:43Z</time>
      </trkpt>
      <trkpt lat="45.8391" lon="4.53827">
        <ele>498</ele>
        <time>2022-02-04T22:10:12Z</time>
      </trkpt>
      <trkpt lat="45.83954" lon="4.53831">
        <ele>493</ele>
        <time>2022-02-04T22:10:47Z</time>
      </trkpt>
      <trkpt lat="45.84007" lon="4.53821">
        <ele>492</ele>
        <time>2022-02-04T22:11:30Z</time>
      </trkpt>
      <trkpt lat="45.8406" lon="4.53829">
        <ele>480</ele>
        <time>2022-02-04T22:12:12Z</time>
      </trkpt>
      <trkpt lat="45.84121" lon="4.53808">
        <ele>472</ele>
        <time>2022-02-04T22:13:03Z</time>
      </trkpt>
      <trkpt lat="45.84171" lon="4.53766">
        <ele>470</ele>
        <time>2022-02-04T22:13:49Z</time>
      </trkpt>
      <trkpt lat="45.84184" lon="4.53741">
        <ele>471</ele>
        <time>2022-02-04T22:14:06Z</time>
      </trkpt>
      <trkpt lat="45.84193" lon="4.53644">
        <ele>476</ele>
        <time>2022-02-04T22:15:01Z</time>
      </trkpt>
      <trkpt lat="45.84188" lon="4.53527">
        <ele>479</ele>
        <time>2022-02-04T22:16:06Z</time>
      </trkpt>
      <trkpt lat="45.84166" lon="4.53413">
        <ele>485</ele>
        <time>2022-02-04T22:17:12Z</time>
      </trkpt>
      <trkpt lat="45.84148" lon="4.53346">
        <ele>485</ele>
        <time>2022-02-04T22:17:52Z</time>
      </trkpt>
      <trkpt lat="45.84107" lon="4.53246">
        <ele>493</ele>
        <time>2022-02-04T22:18:57Z</time>
      </trkpt>
      <trkpt lat="45.8412" lon="4.53175">
        <ele>488</ele>
        <time>2022-02-04T22:19:38Z</time>
      </trkpt>
      <trkpt lat="45.84148" lon="4.53131">
        <ele>485</ele>
        <time>2022-02-04T22:20:11Z</time>
      </trkpt>
      <trkpt lat="45.84194" lon="4.5311">
        <ele>473</ele>
        <time>2022-02-04T22:20:50Z</time>
      </trkpt>
      <trkpt lat="45.84253" lon="4.53072">
        <ele>456</ele>
        <time>2022-02-04T22:21:42Z</time>
      </trkpt>
      <trkpt lat="45.84272" lon="4.5299">
        <ele>457</ele>
        <time>2022-02-04T22:22:30Z</time>
      </trkpt>
      <trkpt lat="45.8429" lon="4.52929">
        <ele>452</ele>
        <time>2022-02-04T22:23:07Z</time>
      </trkpt>
      <trkpt lat="45.84313" lon="4.52845">
        <ele>452</ele>
        <time>2022-02-04T22:23:57Z</time>
      </trkpt>
      <trkpt lat="45.84375" lon="4.52848">
        <ele>445</ele>
        <time>2022-02-04T22:24:47Z</time>
      </trkpt>
      <trkpt lat="45.84471" lon="4.52852">
        <ele>439</ele>
        <time>2022-02-04T22:26:04Z</time>
      </trkpt>
      <trkpt lat="45.84568" lon="4.52893">
        <ele>431</ele>
        <time>2022-02-04T22:27:25Z</time>
      </trkpt>
      <trkpt lat="45.84629" lon="4.52903">
        <ele>430</ele>
        <time>2022-02-04T22:28:14Z</time>
      </trkpt>
      <trkpt lat="45.84666" lon="4.52916">
        <ele>427</ele>
        <time>2022-02-04T22:28:44Z</time>
      </trkpt>
      <trkpt lat="45.8468" lon="4.52952">
        <ele>423</ele>
        <time>2022-02-04T22:29:07Z</time>
      </trkpt>
      <trkpt lat="45.84737" lon="4.52943">
        <ele>426</ele>
        <time>2022-02-04T22:29:53Z</time>
      </trkpt>
      <trkpt lat="45.84768" lon="4.52966">
        <ele>423</ele>
        <time>2022-02-04T22:30:21Z</time>
      </trkpt>
      <trkpt lat="45.84801" lon="4.52988">
        <ele>420</ele>
        <time>2022-02-04T22:30:50Z</time>
      </trkpt>
      <trkpt lat="45.84809" lon="4.52988">
        <ele>420</ele>
        <time>2022-02-04T22:30:57Z</time>
      </trkpt>
      <trkpt lat="45.84812" lon="4.52982">
        <ele>421</ele>
        <time>2022-02-04T22:31:01Z</time>
      </trkpt>
      <trkpt lat="45.8482" lon="4.52946">
        <ele>426</ele>
        <time>2022-02-04T22:31:22Z</time>
      </trkpt>
    </trkseg>
  </trk>
</gpx>